{"data":{"norad_id":41601,"intl_designator":"2016-040C","name":"SKYSAT-C1","alt_names":[],"object_type":"PAYLOAD","status":"ACTIVE","operator":null,"country":"US","launch_date":"2016-06-22","launch_site_code":"SRILR","launch_vehicle":null,"mission":null,"orbit_class":"UNKNOWN","rcs_meters":0.38,"size_class":null,"mass_kg":null,"dimensions":null,"purposes":["earth_obs"],"wikipedia_slug":null,"has_3d_model":false,"image_url":null,"decayed_at":null,"tle_current":{"epoch":"2026-05-25T02:10:26.552640Z","epoch_age_seconds":77512,"freshness":"FRESH","line1":"1 41601U 16040C   26145.09058510  .00008356  00000+0  24157-3 0  9992","line2":"2 41601  96.9583 178.0678 0004455 103.9942 256.1798 15.35849586554328","mean_motion":15.35849586,"eccentricity":0.0004455,"inclination_deg":96.9583,"raan_deg":178.0678,"arg_perigee_deg":103.9942,"mean_anomaly_deg":256.1798,"bstar":0.00024157,"rev_number":55432,"period_min":93.759181441092,"perigee_km":455.35247780824,"apogee_km":461.44383063065,"semimajor_km":6836.5351542194,"source":"CELESTRAK","updated_at":"2026-05-25T13:38:13.294603Z"}}}